This is the latest recevied weather packets stored in our database for station/object LU4EGV-13. If no packets are shown the sender has not sent any weather packets the latest 10 day(s).
| Time | Temp. | Humidity | Pressure | Rain* | Wind** | Luminosity | Snow |
|---|---|---|---|---|---|---|---|
| 1777330295 | 11.67° C | 63% | 1014.2 hPa | 0 mm | - | - | - |
| 1777329687 | 11.67° C | 62% | 1014.1 hPa | 0 mm | - | - | - |
| 1777329081 | 11.67° C | 61% | 1014.1 hPa | 0 mm | - | - | - |
| 1777328479 | 11.67° C | 60% | 1014.2 hPa | 0 mm | - | - | - |
| 1777327869 | 12.22° C | 58% | 1014.1 hPa | 0 mm | - | - | - |
| 1777327264 | 12.78° C | 57% | 1014 hPa | 0 mm | - | - | - |
| 1777326657 | 13.33° C | 56% | 1013.9 hPa | 0 mm | - | - | - |
| 1777326051 | 13.89° C | 55% | 1013.8 hPa | 0 mm | - | - | - |
| 1777325445 | 13.89° C | 53% | 1013.8 hPa | 0 mm | - | - | - |
| 1777324838 | 14.44° C | 52% | 1013.9 hPa | 0 mm | - | - | - |
| 1777324235 | 14.44° C | 51% | 1014 hPa | 0 mm | - | - | - |
| 1777323631 | 15° C | 48% | 1014 hPa | 0.25 mm | - | - | - |
| 1777323039 | 15.56° C | 47% | 1013.8 hPa | 0.25 mm | - | - | - |
| 1777322413 | 15.56° C | 48% | 1013.7 hPa | 0.25 mm | - | - | - |
| 1777321807 | 16.11° C | 48% | 1013.6 hPa | 0.25 mm | - | - | - |
| 1777321203 | 16.67° C | 45% | 1013.7 hPa | 0.25 mm | - | - | - |
| 1777320595 | 16.67° C | 45% | 1013.8 hPa | 0.25 mm | - | - | - |
| 1777319990 | 16.67° C | 46% | 1013.3 hPa | 0 mm | - | - | - |
| 1777319383 | 16.67° C | 47% | 1013.5 hPa | 0 mm | - | - | - |
| 1777318777 | 16.67° C | 49% | 1013.5 hPa | 0 mm | - | - | - |
| 1777318170 | 16.67° C | 49% | 1013.5 hPa | 0 mm | - | - | - |
| 1777317564 | 16.11° C | 49% | 1013.5 hPa | 0 mm | - | - | - |
| 1777316960 | 17.78° C | 48% | 1013.6 hPa | 0 mm | - | - | - |
| 1777316352 | 17.22° C | 48% | 1013.4 hPa | 0 mm | - | - | - |
| 1777315746 | 17.22° C | 50% | 1013.3 hPa | 0.51 mm | - | - | - |
* Rain latest hour (hover to see other rain measurements)
** Current wind speed in m/s (hover to see current wind gust speed)